Weather in Mykolaivka

Ukraine / Dnipropetrovsk Region     48°21′15″N   34°41′25″E
temp.,
°C
wind,
m/s
gust,
m/s
humid.,
%
clouds,
%
prec.,
mm/h
press.,
hPa
HPBL,
m
8 august, mon
mon800:00+22nne46460 0.0 101592
03:00+21nne46475 0.0 101581
06:00+20nne45505 0.0 101682
09:00+27ne34330 0.0 1017355
12:00+32ene33230 0.0 10171064
15:00+34ene33180 0.0 10163378
18:00+33ene44210 0.0 10152974
21:00+27nne44280 0.0 101642
9 august, tue
tue900:00+24nne46350 0.0 101680
03:00+21ne44400 0.0 101658
06:00+20nne22410 0.0 101617
09:00+27nne22282 0.0 1016310
12:00+34ne34200 0.0 10151290
15:00+35e44161 0.0 10143687
18:00+34e44180 0.0 10142900
21:00+27ne462714 0.0 101477
10 august, wed
wed1000:00+24n510617 0.0 1014243
03:00+20n477599 0.0 1014116
06:00+19n487799 0.0 1014158
09:00+26nne5641100 0.0 1014377
12:00+32ne4424100 0.0 10131083
15:00+34ne4620100 0.0 10123344
18:00+33nne6722100 0.0 10111239
21:00+28nne7143499 0.0 1011488
11 august, thu
thu1100:00+25nne584795 0.3 1011124
03:00+24ne51050100 0.8 1011242
06:00+23nne5124799 0.0 1012324
09:00+26ene6124459 0.3 1012374
12:00+34e8122495 0.0 10122934
15:00+33ene6923100 0.0 10112836
18:00+28nne81337100 0.1 1013562
21:00+26nne6134165 0.1 1014653
12 august, fri
fri1200:00+26ne81540100 0.0 1014577
03:00+25ne71242100 0.0 1014342
06:00+24n4847100 0.0 1015247
09:00+27ne71141100 0.0 1015487
12:00+28ne6113894 0.0 1015767
15:00+30ene71130100 0.0 1014831
18:00+33ne7122339 0.0 10131305
21:00+30ene8152576 0.0 1014564